This is the latest recevied weather packets stored in our database for station/object KY4OP-13. If no packets are shown the sender has not sent any weather packets the latest 10 day(s).
| Time | Temp. | Humidity | Pressure | Rain* | Wind** | Luminosity | Snow |
|---|---|---|---|---|---|---|---|
| 1777934059 | 22.78° C | 42% | 1012.5 hPa | 0 mm | - | - | - |
| 1777933756 | 23.33° C | 42% | 1012.6 hPa | 0 mm | - | - | - |
| 1777933453 | 23.33° C | 41% | 1012.4 hPa | 0 mm | - | - | - |
| 1777933151 | 22.78° C | 42% | 1012.5 hPa | 0 mm | - | - | - |
| 1777932848 | 22.78° C | 43% | 1012.2 hPa | 0 mm | - | - | - |
| 1777932545 | 22.78° C | 44% | 1012.4 hPa | 0 mm | - | - | - |
| 1777932241 | 22.78° C | 43% | 1012.5 hPa | 0 mm | - | - | - |
| 1777931939 | 23.33° C | 41% | 1012.4 hPa | 0 mm | - | - | - |
| 1777931635 | 22.78° C | 42% | 1012.4 hPa | 0 mm | - | - | - |
| 1777931331 | 22.78° C | 44% | 1012.4 hPa | 0 mm | - | - | - |
| 1777931028 | 22.78° C | 43% | 1012.3 hPa | 0 mm | - | - | - |
| 1777930725 | 22.78° C | 42% | 1012.4 hPa | 0 mm | - | - | - |
| 1777930421 | 23.33° C | 43% | 1012.3 hPa | 0 mm | - | - | - |
| 1777930118 | 23.89° C | 40% | 1012.1 hPa | 0 mm | - | - | - |
| 1777929814 | 24.44° C | 41% | 1012.1 hPa | 0 mm | - | - | - |
| 1777929512 | 24.44° C | 41% | 1012.3 hPa | 0 mm | - | - | - |
| 1777929208 | 24.44° C | 38% | 1012.5 hPa | 0 mm | - | - | - |
| 1777928906 | 24.44° C | 39% | 1012.4 hPa | 0 mm | - | - | - |
| 1777928603 | 24.44° C | 40% | 1012 hPa | 0 mm | - | - | - |
| 1777928300 | 24.44° C | 40% | 1012.2 hPa | 0 mm | - | - | - |
| 1777927998 | 24.44° C | 40% | 1012.1 hPa | 0 mm | - | - | - |
| 1777927696 | 24.44° C | 40% | 1011.8 hPa | 0 mm | - | - | - |
| 1777927394 | 24.44° C | 38% | 1012.1 hPa | 0 mm | - | - | - |
| 1777927093 | 25° C | 38% | 1012.2 hPa | 0 mm | - | - | - |
| 1777926790 | 25° C | 39% | 1012.4 hPa | 0 mm | - | - | - |
* Rain latest hour (hover to see other rain measurements)
** Current wind speed in m/s (hover to see current wind gust speed)